Location: Bastogne Gables
(35.1554°N, 78.9900°W)
Time: 14:39:22
(UTC+00:00)

AQUARIUS - Pass Details

Date: 05 March 2021
Orbit: 650 x 653 km, 98.0° (Epoch: 13 April)

Event Time Altitude Azimuth Distance (km) Brightness Sun altitude
Rises 23:33:28 0° 191° (SSW) 2,958 7.8 -4.5°
Reaches altitude 10° 23:35:55 10° 203° (SSW) 2,051 7.1 -5.0°
Maximum altitude 23:39:48 29° 263° (W) 1,197 6.6 -5.8°
Drops below altitude 10° 23:43:43 10° 324° (NW) 2,064 7.2 -6.6°
Sets 23:46:11 0° 335° (NNW) 2,979 7.9 -7.1°
